Weather History for Lewistown, MT

Change the Weather History Date:

Tuesday, November 19, 2013

  Actual Average Record
Temperature  
Mean Temperature 34 °F 30 °F  
Max Temperature 56 °F 41 °F 72 °F (1936)
Min Temperature 11 °F 20 °F -24 °F (1921)
Degree Days  
Heating Degree Days 31 35  
Month to date heating degree days 586 584  
Since 1 July heating degree days 1588 1722  
Cooling Degree Days 0 0  
Month to date cooling degree days 0 0  
Year to date cooling degree days 277 210  
Moisture  
Dew Point 21 °F    
Average Humidity 62    
Maximum Humidity 92    
Minimum Humidity 32    
Precipitation  
Precipitation 0.00 in 0.02 in 0.63 in (2007)
Month to date precipitation 0.31 0.46  
Year to date precipitation 21.79 15.94  
Snow  
Snow 0.00 in - - ()
Snow Depth 0.00 in    
Sea Level Pressure  
Sea Level Pressure 29.62 in    
Wind  
Wind Speed 17 mph (WSW)    
Max Wind Speed 37 mph    
Max Gust Speed 44 mph    
Visibility 10 miles    
Events      
T = Trace of Precipitation, MM = Missing Value Source: NWS Daily Summary

Daily Weather History Graph

Daily Weather History Graph

Search for Another Location

Airport:

Trip Planner

Search our weather history database for the weather conditions in past years. The results will help you decide how hot, cold, wet, or windy it might be!

Date:

Astronomy

Nov. 19, 2013 Rise Set
Actual Time 7:27 AM MST 4:38 PM MST
Civil Twilight 6:53 AM MST 5:12 PM MST
Nautical Twilight 6:16 AM MST 5:49 PM MST
Astronomical Twilight 5:40 AM MST 6:25 PM MST
Moon 6:31 PM MST (11/19) 9:10 AM MST (11/19)
Length of Visible Light 10h 18m
Length of Day
9h 11m
Waning Gibbous, 96% of the Moon is Illuminated
Nov 19
Waning Gibbous
Nov 25
Last Quarter
Dec 2
New
Dec 9
First Quarter
Dec 17
Full

Hourly Weather History & Observations

Time (MST) Temp. Windchill Dew Point Humidity Pressure Visibility Wind Dir Wind Speed Gust Speed Precip Events Conditions
12:54 AM 46.9 °F - 21.0 °F 36% 29.67 in 10.0 mi West 9.2 mph - N/A   Partly Cloudy
1:54 AM 45.0 °F 38.9 °F 24.1 °F 44% 29.65 in 10.0 mi SSW 12.7 mph - N/A   Overcast
2:54 AM 44.1 °F 38.1 °F 24.1 °F 45% 29.63 in 10.0 mi SW 11.5 mph - N/A   Mostly Cloudy
3:54 AM 45.0 °F 39.3 °F 26.1 °F 48% 29.61 in 10.0 mi SW 11.5 mph - N/A   Partly Cloudy
4:54 AM 44.1 °F 38.1 °F 26.1 °F 49% 29.60 in 10.0 mi SW 11.5 mph - N/A   Partly Cloudy
5:54 AM 43.0 °F 35.7 °F 26.1 °F 51% 29.58 in 10.0 mi SW 15.0 mph - N/A   Clear
6:54 AM 43.0 °F 35.4 °F 25.0 °F 49% 29.58 in 10.0 mi SW 16.1 mph - N/A   Clear
7:54 AM 44.1 °F 36.5 °F 25.0 °F 47% 29.58 in 10.0 mi SW 17.3 mph - N/A   Clear
8:54 AM 46.0 °F 39.0 °F 25.0 °F 44% 29.57 in 10.0 mi WSW 17.3 mph - N/A   Clear
9:54 AM 53.1 °F - 25.0 °F 34% 29.55 in 10.0 mi WSW 27.6 mph 33.4 mph N/A   Clear
10:54 AM 55.0 °F - 26.1 °F 33% 29.54 in 10.0 mi WSW 31.1 mph 38.0 mph N/A   Clear
11:54 AM 55.0 °F - 26.1 °F 33% 29.52 in 10.0 mi WSW 31.1 mph 41.4 mph N/A   Clear
12:54 PM 55.9 °F - 26.1 °F 32% 29.49 in 10.0 mi WSW 27.6 mph 39.1 mph N/A   Clear
1:54 PM 55.0 °F - 26.1 °F 33% 29.50 in 10.0 mi West 28.8 mph 33.4 mph N/A   Clear
2:54 PM 55.9 °F - 26.1 °F 32% 29.49 in 10.0 mi WSW 19.6 mph 31.1 mph N/A   Clear
3:54 PM 53.1 °F - 26.1 °F 35% 29.49 in 10.0 mi WSW 18.4 mph 27.6 mph N/A   Clear
4:54 PM 48.0 °F - 27.0 °F 44% 29.51 in 10.0 mi WSW 20.7 mph - N/A   Clear
5:54 PM 44.1 °F 37.4 °F 26.1 °F 49% 29.54 in 10.0 mi SW 13.8 mph - N/A   Clear
6:54 PM 21.9 °F 8.2 °F 17.1 °F 82% 29.64 in 10.0 mi West 16.1 mph - N/A   Clear
7:54 PM 14.0 °F -1.4 °F 10.9 °F 88% 29.74 in 10.0 mi West 15.0 mph 18.4 mph N/A   Clear
8:54 PM 12.0 °F -2.7 °F 9.0 °F 88% 29.78 in 10.0 mi West 12.7 mph - N/A   Overcast
9:13 PM 12.2 °F -2.5 °F 8.6 °F 85% 29.71 in 10.0 mi West 12.7 mph - N/A   Overcast
9:54 PM 10.9 °F -4.1 °F 8.1 °F 88% 29.81 in 10.0 mi West 12.7 mph - N/A   Overcast
10:54 PM 10.9 °F -1.8 °F 8.1 °F 88% 29.83 in 10.0 mi West 9.2 mph - N/A   Overcast
11:54 PM 10.9 °F -2.6 °F 9.0 °F 92% 29.83 in 10.0 mi WNW 10.4 mph - N/A   Overcast